DW6033 Weather Reports


time (UTC)temp
F
wind
direction
speed
knots
gust
knots
rain 1hr
in
rain 24hr
in
rain mn
in
humidity
%
barometer
mb
20260507134537 53 122 2.6 6.1 0.00 0.85 0.17 74 1006.2
20260507133035 54 294 3.5 8.7 0.00 0.85 0.17 70 1006.2
20260507131534 53 309 3.5 10.4 0.00 0.85 0.17 72 1006.5
20260507130052 52 311 7.0 11.3 0.00 0.85 0.17 74 1006.3
20260507124530 51 332 2.6 8.7 0.00 0.85 0.17 79 1006.3
20260507123029 51 270 7.0 10.4 0.00 0.85 0.17 80 1006.4
20260507121528 50 291 7.0 9.6 0.00 0.85 0.17 82 1005.9
20260507120034 50 290 6.1 7.8 0.00 0.85 0.17 84 1006.4
20260507114524 49 293 7.0 10.4 0.00 0.85 0.17 86 1006.4
20260507113023 49 295 7.0 8.7 0.00 0.85 0.17 87 1006.8
20260507111519 49 291 4.3 7.0 0.00 0.85 0.17 86 1007.5
20260507110024 49 253 2.6 6.1 0.00 0.85 0.17 85 1007.6
20260507104517 48 249 1.7 5.2 0.00 0.85 0.17 86 1007.1
20260507103015 48 259 2.6 4.3 0.00 0.85 0.17 86 1007.0
20260507101512 48 234 0.0 3.5 0.00 0.85 0.17 86 1006.1
20260507100010 48 253 2.6 4.3 0.00 0.85 0.17 86 1006.3
20260507094509 49 279 3.5 5.2 0.00 0.85 0.17 86 1006.3
20260507093008 49 47 3.5 5.2 0.00 0.85 0.17 85 1006.0
20260507091508 49 325 0.9 6.1 0.00 0.85 0.17 85 1006.1
20260507090006 49 267 2.6 7.8 0.00 0.85 0.17 85 1006.2
20260507084504 49 250 4.3 8.7 0.00 0.85 0.17 85 1006.1
20260507083003 50 311 4.3 9.6 0.00 0.85 0.17 88 1006.0
20260507081605 50 234 2.6 11.3 0.00 0.85 0.17 90 1005.7
20260507080058 50 315 5.2 9.6 0.00 0.85 0.17 91 1005.5
20260507074606 50 306 2.6 6.1 0.00 0.85 0.17 92 1005.6
20260507073100 51 254 2.6 8.7 0.01 0.85 0.17 91 1005.4
20260507071551 51 277 2.6 6.1 0.01 0.85 0.17 92 1005.1
20260507070051 51 323 0.0 3.5 0.01 0.85 0.17 91 1005.0
20260507064549 51 259 2.6 8.7 0.01 0.85 0.17 91 1005.3
20260507063049 51 46 3.5 8.7 0.01 0.84 0.16 90 1004.9
20260507061546 52 347 0.9 13.9 0.08 0.84 0.16 91 1005.0
20260507060043 52 311 2.6 15.6 0.14 0.84 0.16 95 1004.8
20260507054543 52 298 5.2 11.3 0.15 0.84 0.16 95 1004.5
20260507053039 53 280 8.7 18.2 0.14 0.83 0.15 97 1004.2
20260507051537 53 282 6.1 8.7 0.06 0.75 0.07 97 1005.1
20260507050038 52 244 1.7 3.5 0.02 0.70 0.02 97 1004.3
20260507044538 52 270 2.6 9.6 0.01 0.69 0.01 97 1004.1
20260507043031 52 283 5.2 10.4 0.01 0.69 0.01 97 1004.4
20260507041537 52 238 2.6 7.0 0.00 0.68 0.00 97 1004.1
20260507040028 52 263 5.2 13.0 0.00 0.68 0.00 97 1004.2
20260507034526 53 159 5.2 10.4 0.00 0.68 0.68 97 1004.5
20260507033028 53 290 5.2 13.9 0.00 0.68 0.68 96 1004.5
20260507031527 53 262 3.5 11.3 0.00 0.68 0.68 97 1004.6
20260507030022 53 215 7.0 11.3 0.00 0.68 0.68 97 1004.8
20260507024520 53 196 4.3 11.3 0.01 0.68 0.68 96 1005.0
20260507023018 52 177 0.9 7.0 0.02 0.68 0.68 96 1005.4
20260507021516 52 240 3.5 12.2 0.03 0.68 0.68 96 1005.6
20260507020013 53 229 5.2 14.8 0.06 0.68 0.68 96 1005.8
20260507014516 53 211 7.0 13.9 0.07 0.67 0.67 96 1006.0
20260507013019 53 202 1.7 6.1 0.13 0.66 0.66 96 1006.0
20260507011516 53 201 2.6 12.2 0.13 0.64 0.64 96 1006.2
20260507010008 53 215 6.1 9.6 0.13 0.62 0.62 95 1006.4
20260507004515 53 174 4.3 12.2 0.13 0.59 0.59 95 1006.5
20260507003005 53 178 8.7 14.8 0.10 0.53 0.53 95 1006.6
20260507001504 53 238 2.6 13.9 0.16 0.51 0.51 95 1006.8
20260507000004 53 210 7.8 15.6 0.18 0.48 0.48 94 1006.9
20260506234502 53 148 8.7 19.1 0.22 0.46 0.46 95 1007.0
20260506233101 53 171 5.2 12.2 0.22 0.43 0.43 95 1006.9
20260506231559 54 197 7.0 15.6 0.18 0.36 0.36 94 1007.1
20260506230059 54 173 7.8 14.8 0.16 0.30 0.30 94 1007.2
20260506224554 54 152 5.2 13.0 0.12 0.24 0.24 93 1007.2
20260506223056 54 159 6.1 17.4 0.11 0.21 0.21 93 1007.5
20260506221550 54 290 5.2 13.0 0.10 0.18 0.18 93 1007.7
20260506220049 54 191 2.6 13.0 0.08 0.14 0.14 93 1007.7
20260506214547 55 263 4.3 20.0 0.07 0.12 0.12 92 1008.0
20260506213102 55 201 6.1 12.2 0.08 0.10 0.10 92 1008.0
20260506211602 56 234 4.3 9.6 0.07 0.08 0.08 91 1008.2
20260506210044 56 197 3.5 9.6 0.05 0.06 0.06 91 1008.1
20260506204548 56 186 3.5 11.3 0.04 0.05 0.05 89 1008.3
20260506203046 57 268 7.0 18.2 0.01 0.02 0.02 87 1008.4
20260506201554 58 267 7.0 15.6 0.00 0.01 0.01 87 1008.1
20260506200039 58 240 7.8 16.5 0.00 0.01 0.01 85 1008.3
20260506194547 56 181 4.3 7.8 0.00 0.01 0.01 85 1008.0
20260506193040 57 146 3.5 15.6 0.00 0.01 0.01 83 1008.1
20260506191544 57 193 4.3 13.9 0.00 0.01 0.01 84 1008.5
20260506190037 56 198 7.0 12.2 0.00 0.01 0.01 84 1008.4
20260506184534 57 258 2.6 13.9 0.00 0.01 0.01 83 1008.7
20260506183041 57 159 5.2 12.2 0.00 0.01 0.01 84 1008.8
20260506181532 57 89 4.3 7.0 0.00 0.01 0.01 83 1008.9
20260506180035 57 267 7.0 16.5 0.00 0.01 0.01 84 1009.0
20260506174530 56 165 3.5 10.4 0.00 0.01 0.01 84 1009.2
20260506173029 58 231 7.8 19.1 0.00 0.01 0.01 82 1009.5
20260506171531 59 232 10.4 18.2 0.00 0.01 0.01 82 1009.7
20260506170033 59 193 6.1 14.8 0.00 0.01 0.01 82 1009.9
20260506164528 59 226 7.8 19.1 0.00 0.01 0.01 82 1010.3
20260506163027 59 196 11.3 21.7 0.00 0.01 0.01 83 1010.3
20260506161527 59 197 10.4 22.6 0.00 0.01 0.01 82 1010.6
20260506160028 59 238 7.8 18.2 0.00 0.01 0.01 82 1010.8
20260506154524 59 257 7.8 17.4 0.00 0.01 0.01 83 1010.6
20260506153021 57 202 3.5 8.7 0.00 0.01 0.01 85 1010.6
20260506151520 57 259 6.1 17.4 0.00 0.01 0.01 85 1010.2
20260506150020 57 231 9.6 17.4 0.00 0.01 0.01 86 1010.4
20260506144519 57 194 9.6 14.8 0.00 0.01 0.01 87 1011.0
20260506143027 56 176 3.5 10.4 0.01 0.01 0.01 87 1010.9
20260506141516 56 279 7.0 13.0 0.01 0.01 0.01 88 1011.2
20260506140016 56 257 10.4 18.2 0.01 0.01 0.01 88 1011.2